Weather History for KGVL - May, 2013

Change the Weather History Date:

Sunday, May 26, 2013

  Actual Average Record
Temperature  
Mean Temperature 68 °F 71 °F  
Max Temperature 80 °F 80 °F 93 °F (1962)
Min Temperature 56 °F 61 °F 41 °F (1979)
Cooling Degree Days 3 6  
Month to date cooling degree days 76 100  
Year to date cooling degree days 107 139  
Growing Degree Days 18 (Base 50)    
Moisture  
Dew Point 45 °F    
Average Humidity 51    
Maximum Humidity 72    
Minimum Humidity 30    
Precipitation  
Precipitation 0.00 in 0.14 in 1.25 in (1946)
Month to date precipitation 8.07 3.33  
Year to date precipitation 14.92 22.21  
Sea Level Pressure  
Sea Level Pressure 30.21 in    
Wind  
Wind Speed 4 mph (NW)    
Max Wind Speed 13 mph    
Max Gust Speed 18 mph    
Visibility 10 miles    
Events      
T = Trace of Precipitation, MM = Missing Value Source: NWS Daily Summary

Daily Weather History Graph

Daily Weather History Graph

Search for Another Location

Airport or City:

Trip Planner

Search our weather history database for the weather conditions in past years. The results will help you decide how hot, cold, wet, or windy it might be!

Date:

Astronomy

May. 26, 2013 Rise Set
Actual Time 6:26 AM EDT 8:38 PM EDT
Civil Twilight 5:58 AM EDT 9:07 PM EDT
Nautical Twilight 5:23 AM EDT 9:42 PM EDT
Astronomical Twilight 4:45 AM EDT 10:19 PM EDT
Moon 10:26 PM EDT (5/26) 7:54 AM EDT (5/26)
Length of Visible Light 15h 08m
Length of Day
14h 11m
Waning Gibbous, 97% of the Moon is Illuminated
May 26
Waning Gibbous
May 31
Last Quarter
Jun 8
New
Jun 16
First Quarter
Jun 23
Full

Hourly Weather History & Observations

Time (EDT) Temp. Dew Point Humidity Pressure Visibility Wind Dir Wind Speed Gust Speed Precip Events Conditions
12:53 AM 60.1 °F 45.0 °F 57% 30.20 in 10.0 mi Calm Calm - N/A   Clear
1:53 AM 60.1 °F 46.9 °F 62% 30.18 in 10.0 mi NW 6.9 mph - N/A   Clear
2:53 AM 57.9 °F 44.1 °F 60% 30.17 in 10.0 mi NNW 3.5 mph - N/A   Clear
3:53 AM 57.9 °F 43.0 °F 58% 30.18 in 10.0 mi NNW 4.6 mph - N/A   Clear
4:53 AM 57.0 °F 42.1 °F 57% 30.19 in 10.0 mi NNW 4.6 mph - N/A   Clear
5:53 AM 57.0 °F 46.0 °F 67% 30.21 in 10.0 mi Calm Calm - N/A   Mostly Cloudy
6:53 AM 55.9 °F 46.0 °F 69% 30.24 in 10.0 mi Calm Calm - N/A   Clear
7:53 AM 61.0 °F 46.9 °F 60% 30.27 in 10.0 mi North 5.8 mph - N/A   Clear
8:53 AM 66.0 °F 43.0 °F 43% 30.28 in 10.0 mi East 8.1 mph - N/A   Clear
9:53 AM 66.9 °F 39.9 °F 37% 30.27 in 10.0 mi East 12.7 mph - N/A   Clear
10:53 AM 69.1 °F 43.0 °F 39% 30.27 in 10.0 mi East 6.9 mph - N/A   Clear
11:53 AM 71.1 °F 44.1 °F 38% 30.28 in 10.0 mi NE 6.9 mph - N/A   Clear
12:53 PM 72.0 °F 45.0 °F 38% 30.27 in 10.0 mi Calm Calm - N/A   Clear
1:53 PM 75.0 °F 45.0 °F 34% 30.25 in 10.0 mi SE 4.6 mph - N/A   Clear
2:53 PM 79.0 °F 44.1 °F 29% 30.23 in 10.0 mi WNW 5.8 mph - N/A   Clear
3:53 PM 78.1 °F 44.1 °F 30% 30.20 in 10.0 mi West 5.8 mph - N/A   Clear
4:53 PM 78.1 °F 46.0 °F 32% 30.19 in 10.0 mi WSW 6.9 mph - N/A   Clear
5:53 PM 80.1 °F 48.0 °F 32% 30.18 in 10.0 mi West 8.1 mph - N/A   Clear
6:53 PM 79.0 °F 46.0 °F 31% 30.17 in 10.0 mi SW 6.9 mph - N/A   Clear
7:53 PM 75.9 °F 48.9 °F 38% 30.17 in 10.0 mi WSW 4.6 mph - N/A   Clear
8:53 PM 75.0 °F 46.9 °F 37% 30.17 in 10.0 mi WNW 3.5 mph - N/A   Clear
9:53 PM 71.1 °F 48.0 °F 44% 30.19 in 10.0 mi Calm Calm - N/A   Clear
10:53 PM 66.0 °F 50.0 °F 56% 30.20 in 10.0 mi Calm Calm - N/A   Clear
11:53 PM 66.9 °F 48.0 °F 51% 30.20 in 10.0 mi Calm Calm - N/A   Clear